| time (UTC) | temp F | wind direction | speed MPH | gust MPH | rain 1hr in | rain 24hr in | rain mn in | humidity % | barometer mb |
| 20260505195519 | 42 | 0.0 | 0.0 | 0.00 | 0.00 | 0.00 | 58 | 1004.6 | |
| 20260505194520 | 43 | 0.0 | 0.0 | 0.00 | 0.00 | 0.00 | 56 | 1004.4 | |
| 20260505193520 | 44 | 0.0 | 0.0 | 0.00 | 0.00 | 0.00 | 54 | 1004.3 | |
| 20260505192520 | 45 | 0.0 | 0.0 | 0.00 | 0.00 | 0.00 | 53 | 1004.2 | |
| 20260505191519 | 45 | 0.0 | 0.0 | 0.00 | 0.00 | 0.00 | 50 | 1004.0 | |
| 20260505190519 | 46 | 0.0 | 0.0 | 0.00 | 0.00 | 0.00 | 48 | 1004.0 | |
| 20260505185519 | 46 | 0.0 | 0.0 | 0.00 | 0.00 | 0.00 | 47 | 1003.9 | |
| 20260505184519 | 47 | 0.0 | 0.0 | 0.00 | 0.00 | 0.00 | 46 | 1003.9 | |
| 20260505183519 | 47 | 0.0 | 2.0 | 0.00 | 0.00 | 0.00 | 45 | 1003.7 | |
| 20260505182519 | 47 | 293 | 1.0 | 2.0 | 0.00 | 0.00 | 0.00 | 44 | 1003.7 |
| 20260505181539 | 48 | 293 | 1.0 | 3.0 | 0.00 | 0.00 | 0.00 | 44 | 1003.5 |
| 20260505180539 | 48 | 270 | 1.0 | 5.0 | 0.00 | 0.00 | 0.00 | 43 | 1003.4 |
| 20260505175519 | 48 | 293 | 1.0 | 4.0 | 0.00 | 0.00 | 0.00 | 42 | 1003.3 |
| 20260505174519 | 49 | 0.0 | 3.0 | 0.00 | 0.00 | 0.00 | 41 | 1003.2 | |
| 20260505173519 | 49 | 293 | 1.0 | 2.0 | 0.00 | 0.00 | 0.00 | 40 | 1003.1 |
| 20260505172519 | 49 | 293 | 2.0 | 5.0 | 0.00 | 0.00 | 0.00 | 39 | 1003.0 |
| 20260505171519 | 49 | 270 | 1.0 | 3.0 | 0.00 | 0.00 | 0.00 | 40 | 1002.8 |
| 20260505170520 | 49 | 270 | 2.0 | 6.0 | 0.00 | 0.00 | 0.00 | 37 | 1002.8 |
| 20260505165520 | 49 | 270 | 4.0 | 8.0 | 0.00 | 0.00 | 0.00 | 35 | 1002.7 |
| 20260505164519 | 50 | 293 | 2.0 | 5.0 | 0.00 | 0.00 | 0.00 | 37 | 1002.7 |
| 20260505163519 | 50 | 270 | 4.0 | 7.0 | 0.00 | 0.00 | 0.00 | 36 | 1002.7 |
| 20260505162519 | 50 | 293 | 4.0 | 9.0 | 0.00 | 0.00 | 0.00 | 36 | 1002.6 |
| 20260505161519 | 50 | 293 | 3.0 | 9.0 | 0.00 | 0.00 | 0.00 | 36 | 1002.6 |
| 20260505160523 | 50 | 293 | 4.0 | 9.0 | 0.00 | 0.00 | 0.00 | 35 | 1002.6 |
| 20260505152520 | 52 | 293 | 4.0 | 12.0 | 0.00 | 0.00 | 0.00 | 33 | 1002.5 |
| 20260505151522 | 52 | 293 | 4.0 | 10.0 | 0.00 | 0.00 | 0.00 | 32 | 1002.4 |
| 20260505150519 | 52 | 270 | 6.0 | 13.0 | 0.00 | 0.00 | 0.00 | 32 | 1002.4 |
| 20260505140521 | 52 | 270 | 5.0 | 8.0 | 0.00 | 0.00 | 0.00 | 35 | 1002.3 |
| 20260505124539 | 50 | 270 | 6.0 | 9.0 | 0.00 | 0.00 | 0.00 | 35 | 1002.3 |
| 20260505123519 | 51 | 270 | 6.0 | 12.0 | 0.00 | 0.00 | 0.00 | 34 | 1002.1 |
| 20260505122521 | 51 | 270 | 6.0 | 10.0 | 0.00 | 0.00 | 0.00 | 37 | 1002.0 |
| 20260505121536 | 50 | 270 | 5.0 | 12.0 | 0.00 | 0.00 | 0.00 | 36 | 1002.1 |
| 20260505120519 | 51 | 270 | 6.0 | 12.0 | 0.00 | 0.00 | 0.00 | 34 | 1002.1 |
| 20260505115539 | 51 | 270 | 6.0 | 14.0 | 0.00 | 0.00 | 0.00 | 36 | 1002.0 |
| 20260505114518 | 51 | 270 | 5.0 | 11.0 | 0.00 | 0.00 | 0.00 | 36 | 1001.9 |
| 20260505113519 | 51 | 270 | 3.0 | 12.0 | 0.00 | 0.00 | 0.00 | 39 | 1001.9 |
| 20260505112539 | 50 | 270 | 7.0 | 13.0 | 0.00 | 0.00 | 0.00 | 38 | 1002.0 |
| 20260505111518 | 51 | 270 | 5.0 | 11.0 | 0.00 | 0.00 | 0.00 | 41 | 1002.0 |
| 20260505110520 | 51 | 293 | 5.0 | 13.0 | 0.00 | 0.00 | 0.00 | 43 | 1001.9 |
| 20260505101519 | 49 | 270 | 7.0 | 12.0 | 0.00 | 0.00 | 0.00 | 44 | 1001.8 |
| 20260505100518 | 49 | 270 | 5.0 | 10.0 | 0.00 | 0.00 | 0.00 | 45 | 1001.8 |
| 20260505095519 | 49 | 293 | 6.0 | 15.0 | 0.00 | 0.00 | 0.00 | 53 | 1001.7 |
| 20260505094604 | 48 | 270 | 6.0 | 14.0 | 0.00 | 0.00 | 0.00 | 53 | 1001.6 |
| 20260505093518 | 48 | 270 | 5.0 | 16.0 | 0.00 | 0.00 | 0.00 | 55 | 1001.7 |
| 20260505092519 | 48 | 270 | 5.0 | 12.0 | 0.00 | 0.00 | 0.00 | 57 | 1001.6 |
| 20260505091519 | 47 | 270 | 6.0 | 13.0 | 0.00 | 0.00 | 0.00 | 58 | 1001.6 |
| 20260505090519 | 48 | 270 | 6.0 | 13.0 | 0.00 | 0.00 | 0.00 | 57 | 1001.5 |
| 20260505085538 | 48 | 270 | 5.0 | 11.0 | 0.00 | 0.00 | 0.00 | 61 | 1001.4 |
| 20260505084519 | 48 | 293 | 4.0 | 9.0 | 0.00 | 0.00 | 0.00 | 61 | 1001.2 |
| 20260505083519 | 48 | 270 | 4.0 | 11.0 | 0.00 | 0.00 | 0.00 | 63 | 1001.2 |
| 20260505082519 | 47 | 270 | 7.0 | 14.0 | 0.00 | 0.00 | 0.00 | 63 | 1001.0 |
| 20260505081519 | 48 | 270 | 3.0 | 11.0 | 0.00 | 0.00 | 0.00 | 63 | 1001.1 |
| 20260505080519 | 47 | 270 | 4.0 | 10.0 | 0.00 | 0.00 | 0.00 | 65 | 1000.9 |
| 20260505075519 | 46 | 293 | 4.0 | 10.0 | 0.00 | 0.00 | 0.00 | 65 | 1000.9 |
| 20260505074539 | 46 | 270 | 6.0 | 14.0 | 0.00 | 0.00 | 0.00 | 66 | 1000.8 |
| 20260505073520 | 45 | 270 | 4.0 | 9.0 | 0.00 | 0.00 | 0.00 | 69 | 1000.8 |
| 20260505072518 | 45 | 270 | 6.0 | 12.0 | 0.00 | 0.00 | 0.00 | 69 | 1000.7 |
| 20260505071538 | 45 | 270 | 5.0 | 10.0 | 0.00 | 0.00 | 0.00 | 72 | 1000.7 |
| 20260505070519 | 45 | 270 | 4.0 | 8.0 | 0.00 | 0.01 | 0.00 | 72 | 1000.5 |
| 20260505065538 | 45 | 270 | 6.0 | 11.0 | 0.00 | 0.01 | 0.00 | 73 | 1000.4 |
| 20260505064519 | 45 | 270 | 4.0 | 11.0 | 0.00 | 0.01 | 0.00 | 75 | 1000.3 |
| 20260505063519 | 44 | 270 | 6.0 | 11.0 | 0.00 | 0.02 | 0.00 | 75 | 1000.2 |
| 20260505062518 | 45 | 270 | 4.0 | 10.0 | 0.00 | 0.02 | 0.00 | 75 | 1000.1 |
| 20260505061518 | 44 | 293 | 4.0 | 7.0 | 0.00 | 0.04 | 0.00 | 75 | 1000.2 |
| 20260505060518 | 44 | 293 | 2.0 | 6.0 | 0.00 | 0.06 | 0.00 | 78 | 1000.0 |
| 20260505055520 | 44 | 270 | 4.0 | 7.0 | 0.00 | 0.06 | 0.00 | 79 | 999.8 |
| 20260505054519 | 43 | 270 | 3.0 | 6.0 | 0.00 | 0.08 | 0.00 | 80 | 999.8 |
| 20260505053518 | 43 | 293 | 4.0 | 10.0 | 0.00 | 0.10 | 0.00 | 79 | 999.7 |
| 20260505052520 | 44 | 293 | 3.0 | 7.0 | 0.00 | 0.11 | 0.00 | 78 | 999.5 |
| 20260505051520 | 44 | 293 | 2.0 | 6.0 | 0.00 | 0.13 | 0.00 | 79 | 999.5 |
| 20260505050518 | 44 | 270 | 3.0 | 8.0 | 0.00 | 0.16 | 0.00 | 78 | 999.3 |
| 20260505041518 | 45 | 293 | 3.0 | 8.0 | 0.00 | 0.24 | 0.00 | 75 | 999.1 |
| 20260505040520 | 45 | 293 | 3.0 | 7.0 | 0.00 | 0.26 | 0.00 | 74 | 999.0 |
| 20260505035520 | 45 | 293 | 4.0 | 9.0 | 0.00 | 0.28 | 0.00 | 74 | 998.8 |
| 20260505034518 | 46 | 270 | 2.0 | 6.0 | 0.00 | 0.29 | 0.00 | 78 | 998.7 |
| 20260505033518 | 46 | 270 | 6.0 | 17.0 | 0.00 | 0.30 | 0.00 | 78 | 998.6 |
| 20260505032520 | 46 | 270 | 5.0 | 10.0 | 0.00 | 0.30 | 0.00 | 78 | 998.4 |
| 20260505031518 | 46 | 270 | 4.0 | 8.0 | 0.00 | 0.30 | 0.00 | 77 | 998.3 |
| 20260505030519 | 46 | 270 | 3.0 | 9.0 | 0.00 | 0.30 | 0.00 | 77 | 998.2 |
| 20260505025518 | 46 | 270 | 4.0 | 8.0 | 0.00 | 0.30 | 0.00 | 76 | 998.1 |
| 20260505024520 | 46 | 270 | 4.0 | 8.0 | 0.00 | 0.30 | 0.00 | 75 | 998.1 |
| 20260505023521 | 46 | 293 | 4.0 | 9.0 | 0.00 | 0.30 | 0.00 | 74 | 998.0 |
| 20260505022522 | 47 | 293 | 5.0 | 9.0 | 0.00 | 0.30 | 0.00 | 72 | 997.9 |
| 20260505021540 | 47 | 293 | 5.0 | 12.0 | 0.00 | 0.30 | 0.00 | 71 | 997.9 |
| 20260505020520 | 47 | 270 | 5.0 | 12.0 | 0.00 | 0.30 | 0.00 | 70 | 997.7 |
| 20260505015520 | 47 | 293 | 5.0 | 9.0 | 0.00 | 0.30 | 0.00 | 69 | 997.8 |
| 20260505014519 | 48 | 270 | 5.0 | 11.0 | 0.00 | 0.30 | 0.00 | 67 | 997.7 |
| 20260505013518 | 48 | 270 | 5.0 | 11.0 | 0.00 | 0.30 | 0.00 | 66 | 997.7 |
| 20260505012520 | 48 | 270 | 4.0 | 11.0 | 0.00 | 0.30 | 0.00 | 65 | 997.6 |
| 20260505011520 | 48 | 248 | 6.0 | 14.0 | 0.00 | 0.30 | 0.00 | 63 | 997.6 |
| 20260505010520 | 48 | 270 | 3.0 | 8.0 | 0.00 | 0.30 | 0.00 | 62 | 997.5 |
| 20260505005520 | 48 | 248 | 3.0 | 9.0 | 0.00 | 0.30 | 0.00 | 60 | 997.4 |
| 20260505004520 | 48 | 270 | 4.0 | 10.0 | 0.00 | 0.30 | 0.00 | 59 | 997.4 |
| 20260505003524 | 49 | 248 | 4.0 | 12.0 | 0.00 | 0.30 | 0.00 | 58 | 997.3 |
| 20260505002520 | 49 | 248 | 5.0 | 14.0 | 0.00 | 0.30 | 0.00 | 57 | 997.4 |
| 20260505001520 | 49 | 270 | 2.0 | 8.0 | 0.00 | 0.30 | 0.00 | 57 | 997.3 |
| 20260505000520 | 49 | 270 | 3.0 | 9.0 | 0.00 | 0.30 | 0.00 | 56 | 997.3 |
| 20260504235540 | 48 | 270 | 4.0 | 12.0 | 0.00 | 0.30 | 0.00 | 56 | 997.2 |
| 20260504234520 | 48 | 248 | 2.0 | 6.0 | 0.00 | 0.30 | 0.00 | 57 | 997.4 |
| 20260504233540 | 48 | 225 | 2.0 | 6.0 | 0.00 | 0.30 | 0.00 | 56 | 997.4 |
| 20260504232520 | 49 | 248 | 3.0 | 9.0 | 0.00 | 0.30 | 0.00 | 55 | 997.4 |
| 20260504231520 | 49 | 270 | 3.0 | 7.0 | 0.00 | 0.30 | 0.00 | 55 | 997.5 |
| 20260504230520 | 49 | 248 | 3.0 | 6.0 | 0.00 | 0.30 | 0.00 | 55 | 997.5 |
| 20260504225520 | 49 | 225 | 1.0 | 5.0 | 0.00 | 0.30 | 0.00 | 55 | 997.6 |
| 20260504224519 | 49 | 248 | 2.0 | 5.0 | 0.00 | 0.30 | 0.00 | 54 | 997.7 |
| 20260504223519 | 50 | 248 | 2.0 | 6.0 | 0.00 | 0.30 | 0.00 | 53 | 997.7 |
| 20260504222520 | 50 | 248 | 1.0 | 5.0 | 0.00 | 0.30 | 0.00 | 53 | 997.8 |
| 20260504221520 | 51 | 248 | 2.0 | 11.0 | 0.00 | 0.30 | 0.00 | 52 | 997.9 |
| 20260504220519 | 51 | 248 | 3.0 | 5.0 | 0.00 | 0.30 | 0.00 | 50 | 997.9 |
| 20260504215520 | 50 | 270 | 2.0 | 6.0 | 0.00 | 0.30 | 0.30 | 52 | 998.0 |
| 20260504214521 | 50 | 248 | 1.0 | 5.0 | 0.00 | 0.30 | 0.30 | 53 | 998.0 |
| 20260504213521 | 50 | 248 | 1.0 | 4.0 | 0.00 | 0.30 | 0.30 | 52 | 998.1 |
| 20260504212520 | 51 | 248 | 1.0 | 3.0 | 0.00 | 0.30 | 0.30 | 53 | 998.1 |
| 20260504211520 | 51 | 270 | 1.0 | 4.0 | 0.00 | 0.30 | 0.30 | 53 | 998.1 |
| 20260504210540 | 51 | 248 | 2.0 | 5.0 | 0.00 | 0.30 | 0.30 | 52 | 998.2 |
| 20260504205523 | 51 | 248 | 2.0 | 6.0 | 0.00 | 0.30 | 0.30 | 52 | 998.2 |
| 20260504204519 | 51 | 225 | 3.0 | 7.0 | 0.00 | 0.30 | 0.30 | 53 | 998.1 |
| 20260504203519 | 51 | 248 | 2.0 | 4.0 | 0.00 | 0.30 | 0.30 | 54 | 998.2 |
| 20260504202539 | 51 | 248 | 1.0 | 6.0 | 0.00 | 0.30 | 0.30 | 57 | 998.2 |
| 20260504201519 | 51 | 248 | 2.0 | 8.0 | 0.00 | 0.30 | 0.30 | 57 | 998.2 |
| 20260504200519 | 51 | 0.0 | 4.0 | 0.00 | 0.30 | 0.30 | 60 | 998.2 |